Location: Unspecified
(0.0000°N, 0.0000°E)
Time: 19:57:03
(UTC+02:00)

Ariane H10-3 - Visible Passes

Search period start: 20 October 2014 00:00
Search period end: 29 October 2014 23:00
Orbit: 221 x 22350 km, 7.1° (Epoch: 20 October)

Date Brightness Start Highest point End Pass type
(mag) Time Alt. Az. Time Alt. Az. Time Alt. Az.
20 Oct 6.0 17:22:37 10° W 22:06:16 75° N 22:10:10 59° ENE visible
21 Oct 5.9 05:04:10 16° ESE 05:04:10 16° ESE 05:06:09 10° ESE visible
21 Oct 7.0 23:47:56 10° W 00:06:59 32° WNW 00:06:59 32° WNW visible
22 Oct 5.4 07:00:53 10° WSW 07:05:35 55° SSE 07:35:43 10° E visible
23 Oct 6.3 16:21:42 10° W 21:20:20 76° N 21:29:44 36° ENE visible
24 Oct 6.3 22:35:02 10° W 23:24:37 55° WNW 23:24:37 55° WNW visible
25 Oct 4.5 06:17:46 27° SW 06:19:51 46° SSE 06:35:31 10° E visible
26 Oct 6.8 14:22:08 10° W 19:26:12 77° N 19:44:05 17° E visible
27 Oct 5.8 17:31:19 10° W 21:36:31 78° N 21:37:05 77° NNE visible
28 Oct 4.8 04:29:35 32° SE 04:29:35 32° SE 04:36:29 10° ESE visible
28 Oct 7.3 23:20:46 10° W 23:29:26 22° W 23:29:26 22° W visible
